TimeCDT,TemperatureF,Dew PointF,Humidity,Sea Level PressureIn,VisibilityMPH,Wind Direction,Wind SpeedMPH,Gust SpeedMPH,PrecipitationIn,Events,Conditions,WindDirDegrees,DateUTC
12:14 AM,36.9,23.7,59,30.23,10.0,NNW,15.0,21.9,N/A,,Overcast,330,2012-10-06 05:14:00
12:34 AM,36.3,24.8,63,30.23,10.0,NNW,17.3,24.2,N/A,,Overcast,340,2012-10-06 05:34:00
12:54 AM,35.4,25.2,66,30.24,10.0,NNW,10.4,26.5,N/A,,Mostly Cloudy,340,2012-10-06 05:54:00
1:14 AM,33.8,25.2,71,30.24,10.0,NNW,12.7,21.9,N/A,,Scattered Clouds,340,2012-10-06 06:14:00
1:34 AM,32.5,25.2,74,30.25,10.0,NW,12.7,18.4,N/A,,Scattered Clouds,320,2012-10-06 06:34:00
1:54 AM,32.4,25.3,75,30.25,10.0,NW,13.8,19.6,N/A,,Mostly Cloudy,320,2012-10-06 06:54:00
2:14 AM,33.3,25.2,72,30.25,10.0,NW,16.1,19.6,N/A,,Overcast,310,2012-10-06 07:14:00
2:33 AM,33.8,24.8,70,30.25,10.0,NW,16.1,26.5,N/A,,Overcast,320,2012-10-06 07:33:00
2:54 AM,33.8,25.2,71,30.25,10.0,NNW,16.1,20.7,N/A,,Overcast,330,2012-10-06 07:54:00
3:14 AM,33.8,25.0,70,30.24,10.0,NNW,15.0,23.0,N/A,,Overcast,330,2012-10-06 08:14:00
3:34 AM,33.8,25.2,71,30.24,10.0,NNW,12.7,23.0,N/A,,Overcast,330,2012-10-06 08:34:00
3:54 AM,33.1,25.3,73,30.24,10.0,NNW,13.8,-,N/A,,Mostly Cloudy,330,2012-10-06 08:54:00
4:34 AM,31.6,25.3,78,30.25,10.0,NW,13.8,-,N/A,,Scattered Clouds,320,2012-10-06 09:34:00
4:54 AM,32.4,26.2,78,30.25,10.0,NW,13.8,18.4,N/A,,Mostly Cloudy,320,2012-10-06 09:54:00
5:14 AM,32.9,27.0,79,30.25,10.0,NW,16.1,-,N/A,,Overcast,320,2012-10-06 10:14:00
5:35 AM,33.1,26.8,78,30.26,10.0,NW,13.8,-,N/A,,Overcast,320,2012-10-06 10:35:00
5:53 AM,33.1,25.9,75,30.26,10.0,NNW,15.0,18.4,N/A,,Overcast,340,2012-10-06 10:53:00
6:14 AM,33.1,26.1,75,30.27,10.0,NNW,12.7,18.4,N/A,,Overcast,340,2012-10-06 11:14:00
6:34 AM,32.9,25.7,75,30.28,10.0,North,13.8,-,N/A,,Overcast,350,2012-10-06 11:34:00
6:54 AM,32.9,26.2,76,30.28,10.0,North,15.0,-,N/A,,Overcast,350,2012-10-06 11:54:00
7:14 AM,32.2,25.5,76,30.28,10.0,NNW,15.0,21.9,N/A,,Overcast,340,2012-10-06 12:14:00
7:34 AM,32.2,25.3,76,30.29,10.0,NNW,17.3,21.9,N/A,,Overcast,340,2012-10-06 12:34:00
7:54 AM,32.5,25.7,76,30.30,10.0,NNW,15.0,-,N/A,,Overcast,340,2012-10-06 12:54:00
8:14 AM,32.9,26.2,76,30.30,10.0,NW,13.8,18.4,N/A,,Overcast,320,2012-10-06 13:14:00
8:34 AM,33.1,26.4,77,30.31,10.0,NNW,12.7,16.1,N/A,,Overcast,330,2012-10-06 13:34:00
8:53 AM,33.1,26.8,78,30.31,10.0,NNW,12.7,-,N/A,,Overcast,340,2012-10-06 13:53:00
9:14 AM,33.3,27.0,78,30.32,10.0,NNW,13.8,-,N/A,,Overcast,340,2012-10-06 14:14:00
9:34 AM,33.4,27.0,77,30.33,10.0,NNW,12.7,-,N/A,,Overcast,340,2012-10-06 14:34:00
9:54 AM,33.8,27.0,76,30.33,10.0,NNW,12.7,21.9,N/A,,Overcast,340,2012-10-06 14:54:00
10:14 AM,34.0,27.3,77,30.33,10.0,NNW,16.1,-,N/A,,Overcast,330,2012-10-06 15:14:00
10:34 AM,35.4,26.8,71,30.33,10.0,NNW,16.1,-,N/A,,Overcast,340,2012-10-06 15:34:00
10:54 AM,35.4,27.0,71,30.33,10.0,NNW,12.7,-,N/A,,Overcast,330,2012-10-06 15:54:00
11:14 AM,36.7,26.4,66,30.33,10.0,NNW,15.0,21.9,N/A,,Overcast,340,2012-10-06 16:14:00
11:33 AM,38.5,26.4,62,30.33,10.0,North,13.8,-,N/A,,Mostly Cloudy,350,2012-10-06 16:33:00
11:54 AM,36.7,25.7,64,30.33,10.0,NNW,16.1,-,N/A,,Overcast,330,2012-10-06 16:54:00
12:14 PM,37.4,25.5,62,30.34,10.0,NNW,13.8,21.9,N/A,,Overcast,340,2012-10-06 17:14:00
12:34 PM,37.0,25.0,62,30.33,10.0,North,16.1,19.6,N/A,,Overcast,350,2012-10-06 17:34:00
12:54 PM,37.6,24.4,59,30.33,10.0,NNW,12.7,18.4,N/A,,Overcast,340,2012-10-06 17:54:00
1:14 PM,37.8,24.1,58,30.33,10.0,North,10.4,-,N/A,,Overcast,350,2012-10-06 18:14:00
1:35 PM,38.5,23.5,55,30.32,10.0,NNW,11.5,16.1,N/A,,Overcast,340,2012-10-06 18:35:00
1:54 PM,39.4,23.0,52,30.31,10.0,NNW,12.7,17.3,N/A,,Mostly Cloudy,330,2012-10-06 18:54:00
2:14 PM,39.4,22.6,51,30.30,10.0,North,12.7,18.4,N/A,,Overcast,10,2012-10-06 19:14:00
2:34 PM,40.8,22.3,48,30.29,10.0,NW,13.8,-,N/A,,Mostly Cloudy,320,2012-10-06 19:34:00
2:54 PM,41.7,21.9,45,30.28,10.0,NW,11.5,-,N/A,,Scattered Clouds,320,2012-10-06 19:54:00
3:14 PM,41.4,22.1,46,30.28,10.0,North,15.0,19.6,N/A,,Mostly Cloudy,350,2012-10-06 20:14:00
3:34 PM,41.7,21.7,45,30.28,10.0,NNW,13.8,17.3,N/A,,Mostly Cloudy,340,2012-10-06 20:34:00
3:54 PM,41.5,22.1,46,30.28,10.0,North,15.0,18.4,N/A,,Mostly Cloudy,360,2012-10-06 20:54:00
4:14 PM,40.6,21.9,47,30.28,10.0,North,12.7,20.7,N/A,,Mostly Cloudy,350,2012-10-06 21:14:00
4:34 PM,40.1,21.4,47,30.27,10.0,North,10.4,-,N/A,,Scattered Clouds,360,2012-10-06 21:34:00
5:14 PM,39.7,21.2,48,30.27,10.0,NNE,9.2,-,N/A,,Scattered Clouds,20,2012-10-06 22:14:00
5:34 PM,40.1,21.0,47,30.27,10.0,North,8.1,-,N/A,,Mostly Cloudy,350,2012-10-06 22:34:00
5:53 PM,39.7,21.0,47,30.27,10.0,North,9.2,-,N/A,,Scattered Clouds,360,2012-10-06 22:53:00
6:14 PM,38.7,20.7,48,30.27,10.0,North,10.4,-,N/A,,Scattered Clouds,350,2012-10-06 23:14:00
6:34 PM,37.6,20.7,51,30.28,10.0,North,6.9,-,N/A,,Clear,350,2012-10-06 23:34:00
6:54 PM,37.0,20.8,52,30.28,10.0,NNW,3.5,-,N/A,,Mostly Cloudy,330,2012-10-06 23:54:00
7:14 PM,35.8,21.2,55,30.28,10.0,Calm,Calm,-,N/A,,Scattered Clouds,0,2012-10-07 00:14:00
7:34 PM,34.0,20.7,58,30.28,10.0,Calm,Calm,-,N/A,,Scattered Clouds,0,2012-10-07 00:34:00
7:54 PM,34.0,20.3,57,30.28,10.0,WNW,3.5,-,N/A,,Mostly Cloudy,290,2012-10-07 00:54:00
8:14 PM,33.8,20.3,58,30.28,10.0,West,5.8,-,N/A,,Scattered Clouds,280,2012-10-07 01:14:00
8:34 PM,32.5,20.3,61,30.28,10.0,West,4.6,-,N/A,,Clear,270,2012-10-07 01:34:00
8:54 PM,31.8,20.1,62,30.28,10.0,West,5.8,-,N/A,,Clear,270,2012-10-07 01:54:00
9:14 PM,32.0,20.1,62,30.28,10.0,West,5.8,-,N/A,,Clear,280,2012-10-07 02:14:00
9:34 PM,30.6,19.2,63,30.28,10.0,West,4.6,-,N/A,,Clear,270,2012-10-07 02:34:00
9:54 PM,28.8,19.2,68,30.28,10.0,West,4.6,-,N/A,,Clear,270,2012-10-07 02:54:00
10:14 PM,28.4,19.4,69,30.28,10.0,WNW,4.6,-,N/A,,Clear,290,2012-10-07 03:14:00
10:34 PM,28.0,19.0,69,30.28,10.0,WSW,5.8,-,N/A,,Clear,250,2012-10-07 03:34:00
10:54 PM,27.9,19.4,71,30.28,10.0,WSW,6.9,-,N/A,,Clear,240,2012-10-07 03:54:00
11:14 PM,28.2,19.6,70,30.27,10.0,WSW,6.9,-,N/A,,Clear,250,2012-10-07 04:14:00
11:33 PM,27.0,19.4,73,30.27,10.0,WSW,5.8,-,N/A,,Clear,240,2012-10-07 04:33:00
11:54 PM,26.6,19.4,74,30.26,10.0,WSW,6.9,-,N/A,,Clear,240,2012-10-07 04:54:00